Probability
60 62 68 73 73 75 78 80 81 81 80 79 76 72 69 67 68 68 64 62 63 63 62 61 61 59 54 51 47 40 32 23 16 14 13 12 9 8 10 10 10 11 13
53 56 60 64 65 65 67 69 72 75 77 76 75 74 71 67 64 61 56 51 50 51 51 50 48 45 42 38 34 31 26 19 14 12 11 8 7 5 5 6 5 6 7
44 45 46 47 49 50 51 53 58 63 67 72 73 72 69 63 55 48 40 34 31 31 31 30 28 27 25 22 20 18 16 13 11 10 8 6 4 3 2 1 1 1 1
33 33 31 30 30 31 33 35 39 42 49 58 64 63 57 50 41 32 24 19 15 12 12 13 12 12 11 10 9 9 10 10 9 8 7 5 4 3 1 0 0 0 0
22 20 19 17 16 16 18 18 19 21 26 35 43 45 40 32 24 18 13 10 6 4 4 4 3 3 3 3 3 5 7 7 7 6 5 3 2 1 1 0 0 0 0
13 12 10 10 9 9 9 8 8 9 11 14 19 21 21 17 12 10 8 5 3 2 2 2 1 1 0 0 2 3 4 4 4 4 2 1 0 0 0 0 0 0 0
8 7 6 6 5 4 4 4 4 4 4 4 5 6 6 7 6 4 4 3 1 1 1 1 0 0 0 0 1 2 2 2 1 1 1 0 0 0 0 0 0 0 0
2 2 2 2 2 1 1 1 1 1 1 1 1 1 1 1 1 1 1 1 0 0 0 0 0 0 0 0 1 1 1 1 0 0 0 0 0 0 0 0 0 0 0
0 0 0 0 0 0 0 0 0 0 0 0 0 0 0 0 0 0 0 0 0 0 0 0 0 0 0 0 0 0 0 0 0 0 0 0 0 0 0 0 0 0 0
0 0 0 0 0 0 0 0 0 0 0 0 0 0 0 0 0 0 0 0 0 0 0 0 0 0 0 0 0 0 0 0 0 0 0 0 0 0 0 0 0 0 0
0 0 0 0 0 0 0 0 0 0 0 0 0 0 0 0 0 0 0 0 0 0 0 0 0 0 0 0 0 0 0 0 0 0 0 0 0 0 0 0 0 0 0
0 0 0 0 0 0 0 0 0 0 0 0 0 0 0 0 0 0 0 0 0 0 0 0 0 0 0 0 0 0 0 0 0 0 0 0 0 0 0 0 0 0 0
0 0 0 0 0 0 0 0 0 0 0 0 0 0 0 0 0 0 0 0 0 0 0 0 0 0 0 0 0 0 0 0 0 0 0 0 0 0 0 0 0 0 0
0 0 0 0 0 0 0 0 0 0 0 0 0 0 0 0 0 0 0 0 0 0 0 0 0 0 0 0 0 0 0 0 0 0 0 0 0 0 0 0 0 0 0
0 0 0 0 0 0 0 0 0 0 0 0 0 0 0 0 0 0 0 0 0 0 0 0 0 0 0 0 0 0 0 0 0 0 0 0 0 0 0 0 0 0 0
0 0 0 0 0 0 0 0 0 0 0 0 0 0 0 0 0 0 0 0 0 0 0 0 0 0 0 0 0 0 0 0 0 0 0 0 0 0 0 0 0 0 0
0 0 0 0 0 0 0 0 0 0 0 0 0 0 0 0 0 0 0 0 0 0 0 0 0 0 0 0 0 0 0 0 0 0 0 0 0 0 0 0 0 0 0
0 0 0 0 0 0 0 0 0 0 0 0 0 0 0 0 0 0 0 0 0 0 0 0 0 0 0 0 0 0 0 0 0 0 0 0 0 0 0 0 0 0 0
0 0 0 0 0 0 0 0 0 0 0 0 0 0 0 0 0 0 0 0 0 0 0 0 0 0 0 0 0 0 0 0 0 0 0 0 0 0 0 0 0 0 0
0 0 0 0 0 0 0 0 0 0 0 0 0 0 0 0 0 0 0 0 0 0 0 0 0 0 0 0 0 0 0 0 0 0 0 0 0 0 0 0 0 0 0
0 0 0 0 0 0 0 0 0 0 0 0 0 0 0 0 0 0 0 0 0 0 0 0 0 0 0 0 0 0 0 0 0 0 0 0 0 0 0 0 0 0 0
0 0 0 0 0 0 0 0 0 0 0 0 0 0 0 0 0 0 0 0 0 0 0 0 0 0 0 0 0 0 0 0 0 0 0 0 0 0 0 0 0 0 0
0 0 0 0 0 0 0 0 0 0 0 0 0 0 0 0 0 0 0 0 0 0 0 0 0 0 0 0 0 0 0 0 0 0 0 0 0 0 0 0 0 0 0
0 0 0 0 0 0 0 0 0 0 0 0 0 0 0 0 0 0 0 0 0 0 0 0 0 0 0 0 0 0 0 0 0 0 0 0 0 0 0 0 0 0 0
0 0 0 0 0 0 0 0 0 0 0 0 0 0 0 0 0 0 0 0 0 0 0 0 0 0 0 0 0 0 0 0 0 0 0 0 0 0 0 0 0 0 0
0 0 0 0 0 0 0 0 0 0 0 0 0 0 0 0 0 0 0 0 0 0 0 0 0 0 0 0 0 0 0 0 0 0 0 0 0 0 0 0 0 0 0
Wind_Speed
12 10 8 9 9 9 7 5 4 4 3 3 4 4 3 3 3 2 3 4 2 2 2 1 2 2 1 1 1 1 0 1 1 1 2 2 2 2 1 1 1 2 2
12 13 12 11 11 10 7 6 5 4 2 1 2 2 3 2 3 3 6 6 5 5 4 4 3 3 2 3 3 2 1 1 0 1 1 2 2 2 1 0 1 2 2
13 12 13 13 13 13 11 8 8 6 3 1 2 2 2 2 3 5 6 8 9 9 8 7 6 5 4 3 3 3 2 1 0 0 1 2 2 1 0 1 2 2 2
13 12 13 14 14 13 12 12 11 10 7 5 3 3 3 3 5 6 7 10 12 11 10 9 8 7 5 5 5 4 3 2 1 1 1 1 1 1 1 1 1 1 1
13 13 13 14 14 13 13 12 12 13 12 10 8 6 6 7 7 8 11 11 10 11 11 10 9 8 7 8 8 7 6 4 3 2 1 1 1 2 1 1 1 1 1
13 14 13 14 14 14 13 13 14 14 14 13 13 12 12 11 11 10 10 9 8 9 11 11 10 9 8 8 8 8 9 7 7 5 4 3 2 2 1 1 1 1 1
12 13 14 14 14 15 14 14 15 15 15 15 15 15 15 14 13 11 11 10 8 8 10 10 10 9 9 9 8 9 9 8 8 7 5 4 4 3 2 2 2 2 1
13 14 13 13 14 14 14 14 15 15 15 15 15 14 14 11 11 12 11 10 8 8 9 9 9 10 9 9 8 8 7 7 7 9 7 5 5 4 4 3 3 3 2
13 13 13 13 13 14 14 14 14 15 14 14 14 14 14 13 13 12 10 8 7 7 8 8 8 8 8 8 7 7 7 6 6 6 7 5 4 5 4 3 3 3 4
13 13 12 13 13 13 13 14 14 14 14 13 12 12 13 13 12 11 11 10 9 7 7 8 7 7 7 7 6 5 5 5 5 4 5 5 4 4 4 3 3 3 3
12 12 12 12 12 12 12 12 13 13 13 13 12 12 11 11 10 10 9 8 7 6 6 5 5 6 6 5 4 4 4 5 4 4 4 4 3 4 4 4 4 3 3
12 12 12 12 11 12 11 11 11 11 11 11 11 10 10 9 9 8 7 6 5 5 5 5 5 5 5 4 5 5 5 4 4 4 5 5 4 4 4 4 4 3 3
12 11 11 11 10 10 10 10 10 10 10 10 10 9 9 8 8 7 5 5 5 5 4 4 5 5 6 7 7 6 5 5 4 4 4 4 4 4 4 5 5 4 5
11 11 10 9 9 9 9 9 8 8 9 9 9 9 8 7 6 5 5 4 4 4 4 4 5 6 8 8 9 9 6 5 4 4 3 4 4 4 5 5 5 5 5
11 10 9 8 8 8 8 8 7 7 8 8 9 8 7 6 5 4 4 3 4 5 4 4 5 5 6 8 9 9 8 7 6 5 4 4 3 2 3 5 5 6 5
11 10 9 8 7 7 6 6 6 6 6 7 8 7 6 5 5 4 4 4 4 4 4 4 5 6 6 6 9 9 8 8 6 5 5 5 1 2 5 7 9 8 7
11 9 8 7 6 5 4 5 6 5 6 6 6 5 5 4 4 4 4 4 3 3 3 3 4 6 5 6 8 11 8 8 5 4 4 6 5 4 6 8 10 9 11
11 9 7 7 6 5 3 3 4 5 5 5 5 5 5 4 4 4 3 3 3 2 2 3 3 4 4 4 8 13 8 6 5 5 4 4 3 6 7 8 9 8 7
9 8 7 7 5 4 3 3 4 4 4 5 4 5 4 4 4 4 3 3 2 2 2 2 3 4 4 3 7 10 7 5 6 6 5 5 4 5 8 8 8 9 7
9 8 7 7 5 4 2 3 4 4 4 4 5 4 4 3 3 4 3 2 2 2 3 3 3 4 4 1 5 9 6 6 6 5 3 4 4 7 8 7 8 9 8
9 8 7 6 5 4 3 3 4 4 4 4 4 4 3 1 2 2 2 2 3 2 2 2 2 3 3 2 2 5 5 6 7 6 5 3 5 10 11 9 7 9 9
10 9 7 6 5 4 4 4 4 3 4 4 3 2 2 3 3 2 2 2 3 3 2 2 2 2 3 2 1 5 6 6 6 6 6 7 12 14 14 10 9 11 10
9 7 7 6 5 4 3 4 3 3 3 3 2 1 2 2 2 3 2 2 3 3 3 3 3 3 2 2 3 6 9 9 5 5 10 13 15 13 9 9 11 9 5
8 7 7 7 5 4 5 4 3 2 2 2 0 0 0 1 1 2 3 4 5 5 5 4 4 4 4 6 6 7 7 9 7 8 11 13 11 8 8 8 7 5 4
7 7 7 7 6 5 4 4 3 2 1 0 1 1 1 1 2 3 4 5 5 4 4 5 5 5 5 5 6 6 7 7 7 9 7 5 5 4 4 4 4 4 4
7 6 6 6 6 5 4 3 2 1 1 1 2 1 1 0 1 3 5 6 5 4 3 3 3 2 3 7 10 10 12 13 11 7 6 5 5 5 5 4 4 4 4
Wind_Direction
76 67 62 77 81 77 75 78 86 110 134 158 173 174 168 149 131 109 91 94 93 93 95 87 64 45 37 30 14 327 307 290 316 288 284 285 279 271 257 303 343 26 54
65 62 52 49 54 58 62 67 58 70 99 152 163 150 149 138 115 92 74 63 59 54 60 57 58 48 41 35 15 336 296 292 341 274 277 287 275 260 245 15 36 40 40
53 54 54 49 46 42 38 43 42 42 36 77 128 122 110 96 84 76 63 52 51 51 51 53 57 50 49 40 22 358 321 289 299 243 260 268 274 310 16 27 51 44 37
60 48 48 50 45 40 41 42 41 39 33 38 79 121 117 98 81 79 71 58 50 50 49 50 53 51 45 41 30 28 22 11 329 326 8 325 346 308 302 15 51 49 49
71 61 51 52 50 46 44 45 45 42 37 40 52 73 81 83 81 79 74 67 55 50 50 52 54 53 51 48 43 39 40 36 27 18 17 359 355 352 301 313 13 6 8
72 69 61 57 53 51 49 48 50 48 44 47 52 63 74 80 82 79 78 72 64 55 51 53 52 51 50 49 47 48 49 44 42 36 36 33 22 1 1 346 338 344 340
74 67 62 58 55 53 52 53 55 53 51 54 57 63 69 71 71 73 72 71 64 57 51 52 52 49 47 47 46 48 46 41 45 41 32 27 30 13 7 8 352 339 318
79 72 66 63 61 59 58 59 61 61 60 61 63 64 68 71 71 71 74 72 70 65 59 58 57 54 51 50 49 49 44 38 38 40 34 22 23 15 16 7 349 337 330
85 80 75 70 68 65 63 64 67 67 66 70 72 71 73 76 77 76 74 74 72 71 64 61 59 54 50 47 48 50 43 39 35 31 29 21 13 12 360 355 351 345 338
89 84 80 78 75 74 72 70 71 72 70 70 73 77 75 76 78 79 78 76 71 68 65 62 60 57 51 45 44 48 38 38 30 25 29 20 7 356 349 343 340 342 336
96 91 88 85 84 82 81 79 77 77 76 75 75 77 77 77 78 78 77 78 77 76 75 71 69 65 57 46 39 45 41 36 26 18 19 12 1 1 343 343 343 347 354
100 95 93 90 86 82 80 80 81 81 81 80 79 79 80 80 80 80 80 80 77 75 75 69 64 61 55 38 29 24 30 26 23 15 8 1 2 359 351 350 342 342 328
105 101 95 91 87 86 84 83 82 84 87 88 87 85 84 83 83 83 83 83 81 74 68 62 59 52 44 33 19 14 18 16 11 8 360 351 0 2 359 338 337 335 336
109 104 99 96 94 91 90 90 90 92 93 91 89 87 86 84 83 82 80 79 84 81 68 58 54 56 46 32 16 360 359 359 353 350 343 345 6 8 349 329 339 335 326
115 111 108 103 100 95 91 90 91 93 97 98 96 94 94 93 90 84 75 62 54 63 58 57 57 61 58 31 15 352 349 346 341 342 341 342 344 1 305 319 331 324 320
117 112 108 104 98 93 93 95 94 97 100 100 101 102 102 103 105 98 79 66 54 45 43 42 54 56 52 31 12 356 338 327 330 339 338 326 298 301 280 288 290 286 293
123 119 113 104 98 93 94 100 98 100 98 98 102 107 104 96 88 81 69 54 47 43 39 34 63 82 67 20 359 349 325 311 318 326 327 332 359 8 352 331 310 291 278
129 126 120 112 106 101 94 101 109 107 106 104 101 101 94 88 81 73 60 48 36 24 23 32 63 99 82 19 355 341 319 311 325 329 327 333 7 31 358 329 319 312 307
130 129 125 123 120 116 113 107 102 101 100 95 91 84 73 70 69 64 48 35 13 5 358 34 59 89 102 24 355 346 319 339 345 346 1 359 23 20 348 326 318 318 317
129 130 130 129 127 130 137 132 114 106 97 87 79 69 55 49 51 47 25 4 345 349 1 34 53 74 92 69 352 348 341 351 343 346 3 30 2 341 334 323 314 312 319
131 134 137 137 141 150 153 121 108 102 96 88 81 71 43 17 70 52 7 342 352 8 3 18 56 82 95 138 317 340 342 346 335 337 338 352 339 324 316 306 286 290 308
139 143 141 138 142 150 142 121 107 97 93 88 79 66 27 0 58 39 9 3 349 350 14 29 50 86 113 80 329 309 310 308 316 325 335 335 325 316 309 302 292 303 307
142 144 140 133 129 130 119 111 98 88 87 85 68 50 48 23 15 357 8 8 4 9 11 21 23 34 51 58 347 323 314 313 306 322 325 317 311 310 305 306 310 308 294
138 142 139 133 127 122 113 114 109 92 81 79 59 229 223 14 47 15 24 39 29 17 8 19 13 15 39 29 5 347 341 347 348 343 323 314 312 310 304 305 305 295 294
134 137 130 128 129 132 128 125 114 102 92 60 304 306 10 68 77 78 50 49 63 47 16 12 7 10 12 3 336 325 327 329 327 324 309 315 328 331 325 316 311 313 326
132 132 131 130 131 130 124 114 112 98 10 333 335 329 340 75 115 127 111 62 94 114 82 41 1 359 1 323 320 320 315 309 309 311 308 321 331 336 338 344 349 346 349